Flora, IL

5:02 PM CDT on August 21, 2017 (GMT -0500)
Flora Municipal

Weather History for KFOA - October, 2012

Change the Weather History Date:

Monday, October 15, 2012

  Actual Average (KSLO) Record (KSLO)
Temperature  
Mean Temperature 57 °F -  
Max Temperature 67 °F 71 °F 90 °F (1963)
Min Temperature 46 °F 47 °F 30 °F (1961)
Degree Days  
Heating Degree Days 8    
Growing Degree Days 7 (Base 50)    
Moisture  
Dew Point 46 °F    
Average Humidity 69    
Maximum Humidity 97    
Minimum Humidity 39    
Precipitation  
Precipitation 0.00 in - - ()
Sea Level Pressure  
Sea Level Pressure 29.97 in    
Wind  
Wind Speed 6 mph (WNW)    
Max Wind Speed 12 mph    
Max Gust Speed 20 mph    
Visibility 10 miles    
Events      
Averages and records for this station are not official NWS values.
T = Trace of Precipitation, MM = Missing Value Source: NWS Daily Summary

Daily Weather History Graph

Daily Weather History Graph

Search for Another Location

Airport or City:

Trip Planner

Search our weather history database for the weather conditions in past years. The results will help you decide how hot, cold, wet, or windy it might be!

Date:

Astronomy

Oct. 15, 2012 Rise Set
Actual Time 7:03 AM CDT 6:14 PM CDT
Civil Twilight 6:36 AM CDT 6:41 PM CDT
Nautical Twilight 6:05 AM CDT 7:12 PM CDT
Astronomical Twilight 5:35 AM CDT 7:43 PM CDT
Moon 7:12 AM CDT (10/15) 6:15 PM CDT (10/15)
Length of Visible Light 12h 04m
Length of Day
11h 11m
New Moon, 0% of the Moon is Illuminated
Oct 15
New Moon
Oct 21
First Quarter
Oct 29
Full
Nov 6
Last Quarter
Nov 13
New

Hourly Weather History & Observations

Time (CDT) Temp. Dew Point Humidity Pressure Visibility Wind Dir Wind Speed Gust Speed Precip Events Conditions
12:15 AM 55.6 °F 48.2 °F 76% 29.92 in 10.0 mi WNW 5.8 mph - N/A   Mostly Cloudy
12:35 AM 55.4 °F 47.8 °F 76% 29.92 in 10.0 mi WNW 8.1 mph - N/A   Clear
12:55 AM 55.4 °F 47.8 °F 76% 29.92 in 10.0 mi West 8.1 mph - N/A   Clear
1:15 AM 55.9 °F 48.4 °F 76% - 10.0 mi West 8.1 mph - N/A   Clear
1:35 AM 55.4 °F 48.6 °F 78% 29.92 in 10.0 mi West 6.9 mph - N/A   Clear
1:55 AM 55.4 °F 48.6 °F 78% 29.93 in 10.0 mi West 6.9 mph - N/A   Clear
2:15 AM 54.5 °F 48.6 °F 80% 29.92 in 10.0 mi West 4.6 mph - N/A   Clear
2:35 AM 53.2 °F 48.4 °F 84% 29.92 in 10.0 mi WSW 5.8 mph - N/A   Clear
2:55 AM 51.8 °F 48.4 °F 88% 29.92 in 10.0 mi WSW 5.8 mph - N/A   Clear
3:15 AM 51.1 °F 48.6 °F 91% 29.92 in 10.0 mi WSW 4.6 mph - N/A   Clear
3:35 AM 51.1 °F 49.1 °F 93% 29.92 in 10.0 mi WSW 5.8 mph - N/A   Clear
3:55 AM 50.9 °F 48.7 °F 92% 29.92 in 10.0 mi West 5.8 mph - N/A   Clear
4:15 AM 50.9 °F 48.9 °F 93% 29.92 in 10.0 mi West 4.6 mph - N/A   Clear
4:35 AM 50.0 °F 48.2 °F 94% 29.93 in 10.0 mi West 3.5 mph - N/A   Clear
4:55 AM 49.8 °F 48.2 °F 94% 29.93 in 10.0 mi West 3.5 mph - N/A   Clear
5:15 AM 49.5 °F 47.8 °F 94% 29.94 in 10.0 mi WSW 4.6 mph - N/A   Clear
5:35 AM 49.3 °F 48.0 °F 95% 29.94 in 10.0 mi West 4.6 mph - N/A   Clear
5:55 AM 49.3 °F 48.0 °F 95% 29.94 in 7.0 mi WSW 4.6 mph - N/A   Clear
6:15 AM 48.6 °F 47.5 °F 96% 29.95 in 7.0 mi WSW 4.6 mph - N/A   Clear
6:35 AM 48.2 °F 47.3 °F 97% 29.96 in 7.0 mi West 3.5 mph - N/A   Clear
6:55 AM 48.2 °F 47.3 °F 97% 29.96 in 7.0 mi West 4.6 mph - N/A   Clear
7:15 AM 48.2 °F 47.3 °F 97% 29.97 in 7.0 mi West 4.6 mph - N/A   Clear
7:35 AM 48.7 °F 47.7 °F 96% 29.97 in 7.0 mi West 4.6 mph - N/A   Clear
7:55 AM 50.2 °F 48.6 °F 94% 29.97 in 7.0 mi West 4.6 mph - N/A   Clear
8:15 AM 52.3 °F 49.3 °F 89% 29.98 in 10.0 mi West 6.9 mph - N/A   Clear
8:35 AM 53.8 °F 48.6 °F 82% 29.99 in 10.0 mi WNW 6.9 mph - N/A   Clear
8:55 AM 55.2 °F 48.4 °F 78% 29.99 in 10.0 mi NW 6.9 mph - N/A   Clear
9:15 AM 56.3 °F 48.9 °F 76% 30.00 in 10.0 mi WNW 5.8 mph - N/A   Clear
9:35 AM 57.0 °F 49.1 °F 75% 30.01 in 10.0 mi NW 6.9 mph - N/A   Clear
9:55 AM 58.1 °F 48.7 °F 71% 30.01 in 10.0 mi WNW 8.1 mph - N/A   Clear
10:15 AM 59.4 °F 48.0 °F 66% 30.02 in 10.0 mi NW 6.9 mph - N/A   Clear
10:35 AM 61.2 °F 48.0 °F 62% 30.02 in 10.0 mi NW 6.9 mph - N/A   Clear
10:55 AM 61.7 °F 43.9 °F 52% 30.01 in 10.0 mi NW 6.9 mph - N/A   Clear
11:15 AM 62.6 °F 41.4 °F 46% 30.02 in 10.0 mi NW 9.2 mph 19.6 mph N/A   Clear
11:35 AM 63.5 °F 41.5 °F 45% 30.02 in 10.0 mi NW 10.4 mph - N/A   Clear
11:55 AM 63.9 °F 39.6 °F 41% 30.02 in 10.0 mi NNW 6.9 mph 16.1 mph N/A   Clear
12:15 PM 64.4 °F 39.9 °F 41% 30.02 in 10.0 mi NNW 11.5 mph - N/A   Clear
12:35 PM 65.3 °F 41.2 °F 41% 30.01 in 10.0 mi NW 8.1 mph - N/A   Clear
12:55 PM 65.5 °F 41.4 °F 41% 30.01 in 10.0 mi NW 10.4 mph 16.1 mph N/A   Clear
1:15 PM 65.5 °F 41.5 °F 42% 30.00 in 10.0 mi WNW 11.5 mph - N/A   Clear
1:35 PM 67.1 °F 42.6 °F 41% 29.99 in 10.0 mi NW 8.1 mph 16.1 mph N/A   Clear
1:55 PM 66.0 °F 41.9 °F 41% 29.99 in 10.0 mi NNW 9.2 mph - N/A   Clear
2:15 PM 66.7 °F 42.6 °F 42% 29.99 in 10.0 mi WNW 11.5 mph - N/A   Clear
2:35 PM 67.1 °F 42.4 °F 41% 29.98 in 10.0 mi West 9.2 mph - N/A   Clear
2:55 PM 67.1 °F 42.1 °F 40% 29.98 in 10.0 mi WNW 9.2 mph - N/A   Clear
3:15 PM 67.1 °F 41.9 °F 40% 29.99 in 10.0 mi WNW 9.2 mph - N/A   Clear
3:35 PM 67.1 °F 41.7 °F 40% 29.98 in 10.0 mi NW 9.2 mph - N/A   Clear
3:55 PM 67.3 °F 41.9 °F 40% 29.98 in 10.0 mi NW 8.1 mph - N/A   Clear
4:15 PM 67.1 °F 41.5 °F 39% 29.98 in 10.0 mi NW 4.6 mph - N/A   Clear
4:35 PM 67.1 °F 42.6 °F 41% 29.98 in 10.0 mi NW 5.8 mph - N/A   Clear
4:55 PM 65.3 °F 42.8 °F 44% 29.97 in 10.0 mi NW 3.5 mph - N/A   Clear
5:15 PM 66.9 °F 43.3 °F 42% 29.97 in 10.0 mi NW 3.5 mph - N/A   Clear
5:35 PM 65.5 °F 43.0 °F 44% 29.97 in 10.0 mi NW 6.9 mph - N/A   Clear
5:55 PM 64.6 °F 42.8 °F 45% 29.97 in 10.0 mi NW 3.5 mph - N/A   Clear
6:15 PM 63.5 °F 44.1 °F 49% 29.97 in 10.0 mi Calm Calm - N/A   Clear
6:35 PM 58.5 °F 45.1 °F 61% 29.97 in 10.0 mi Calm Calm - N/A   Clear
6:55 PM 60.8 °F 43.9 °F 54% 29.97 in 7.0 mi Calm Calm - N/A   Clear
7:15 PM 53.1 °F 45.0 °F 74% 29.97 in 10.0 mi Calm Calm - N/A   Clear
7:35 PM 52.7 °F 45.7 °F 77% 29.97 in 10.0 mi Calm Calm - N/A   Clear
7:55 PM 52.9 °F 45.9 °F 77% 29.97 in 10.0 mi Calm Calm - N/A   Clear
8:15 PM 52.3 °F 46.2 °F 80% 29.97 in 10.0 mi Calm Calm - N/A   Clear
9:15 PM 49.8 °F 45.3 °F 84% 29.99 in 10.0 mi Calm Calm - N/A   Clear
9:35 PM 48.4 °F 45.3 °F 89% 29.99 in 7.0 mi Calm Calm - N/A   Clear
10:15 PM 47.3 °F 45.9 °F 95% 29.99 in 10.0 mi Calm Calm - N/A   Clear
11:15 PM 46.0 °F 44.4 °F 94% 29.99 in 7.0 mi Calm Calm - N/A   Clear